User: anonymous
Location: Astronight Observatory
(42.6003°N, 71.2981°W)
Time: 13:29:14
(UTC-04:00)
Language:

DELTA 2 R/B (1) - Orbit

View from above orbital plane
View from above orbital plane
View from above satellite
View from above satellite

Ground track
Ground track

The orbit data is extracted from the following two-line orbital elements,

1 27665U 03005C   14109.49737279  .00000123  00000-0  82771-4 0    49
2 27665 039.5751 228.8100 0009484 319.9626 087.7878 14.28179699585795
Epoch (UTC): 19 April 2014 11:56:13
Eccentricity: 0.0009484
inclination: 39.5751°
perigee height: 791 km
apogee height: 804 km
right ascension of ascending node: 228.8100°
argument of perigee: 319.9626°
revolutions per day: 14.28179699
mean anomaly at epoch: 87.7878°
orbit number at epoch: 58579

The dashed part of the orbit path shows where the satellite is in the earth's shadow,  

DLR